When you browse on this site, cookies collect data to enhance your experience and personalize the content and advertising you see.
Visit our Privacy Policy to learn more. By continuing to use the site, you agree to this use of cookies and data.
  • In Spain
  • List of Countries
  • For 7 days
  • Water Temperature
  • Satellite Maps
  • Weather Map
  • Weather Widgets
  • user-avatar
    Login

    Hourly Weather Carevo

    Today, 25 June, Tuesday

    Time Temperature Precipitation Wind Pressure Humidity
    00:00 +16°C° 0 mm 3 mps 749 mmHg 78%
    01:00 +16°C° 0 mm 3 mps 750 mmHg 77%
    02:00 +15°C° 0 mm 2 mps 750 mmHg 77%
    03:00 +15°C° 0 mm 2 mps 750 mmHg 80%
    04:00 +15°C° 0 mm 2 mps 750 mmHg 80%
    05:00 +14°C° 0 mm 3 mps 751 mmHg 80%
    06:00 +14°C° 0 mm 3 mps 751 mmHg 80%
    07:00 +17°C° 0 mm 3 mps 751 mmHg 74%
    08:00 +18°C° 0 mm 3 mps 752 mmHg 68%
    09:00 +19°C° 0 mm 4 mps 752 mmHg 62%
    10:00 +20°C° 0 mm 4 mps 752 mmHg 60%
    11:00 +21°C° 0 mm 4 mps 752 mmHg 58%
    12:00 +22°C° 0 mm 4 mps 752 mmHg 56%
    13:00 +22°C° 0 mm 4 mps 752 mmHg 56%
    14:00 +22°C° 0 mm 4 mps 752 mmHg 55%
    15:00 +22°C° 0 mm 4 mps 752 mmHg 55%
    16:00 +22°C° 0 mm 3 mps 752 mmHg 58%
    17:00 +22°C° 0 mm 3 mps 752 mmHg 62%
    18:00 +21°C° 0 mm 2 mps 752 mmHg 66%
    19:00 +20°C° 0 mm 2 mps 752 mmHg 68%
    20:00 +19°C° 0 mm 1 mps 752 mmHg 70%
    21:00 +18°C° 0 mm 1 mps 752 mmHg 72%
    22:00 +16°C° 0 mm 1 mps 752 mmHg 74%
    23:00 +14°C° 0 mm 0 mps 752 mmHg 77%

    Tomorrow, 26 June, Wednesday

    Time Temperature Precipitation Wind Pressure Humidity
    00:00 +13°C° 0 mm 0 mps 752 mmHg 79%
    01:00 +13°C° 0 mm 0 mps 752 mmHg 80%
    02:00 +13°C° 0 mm 1 mps 752 mmHg 80%
    03:00 +13°C° 0 mm 1 mps 752 mmHg 81%
    04:00 +14°C° 0 mm 1 mps 752 mmHg 81%
    05:00 +14°C° 0 mm 1 mps 752 mmHg 81%
    06:00 +15°C° 0 mm 1 mps 752 mmHg 80%
    07:00 +16°C° 0 mm 1 mps 751 mmHg 76%
    08:00 +19°C° 0 mm 1 mps 751 mmHg 71%
    09:00 +19°C° 0 mm 2 mps 751 mmHg 67%
    10:00 +20°C° 0 mm 2 mps 751 mmHg 62%
    11:00 +21°C° 0 mm 2 mps 750 mmHg 58%
    12:00 +24°C° 0 mm 2 mps 750 mmHg 53%
    13:00 +24°C° 0 mm 3 mps 750 mmHg 54%
    14:00 +24°C° 0 mm 3 mps 749 mmHg 55%
    15:00 +24°C° 0 mm 3 mps 749 mmHg 56%
    16:00 +24°C° 0 mm 3 mps 748 mmHg 61%
    17:00 +24°C° 0 mm 3 mps 748 mmHg 65%
    18:00 +24°C° 0 mm 3 mps 747 mmHg 69%
    19:00 +21°C° 0 mm 3 mps 747 mmHg 73%
    20:00 +19°C° 0 mm 2 mps 746 mmHg 78%
    21:00 +18°C° 0 mm 2 mps 746 mmHg 82%
    22:00 +17°C° 0 mm 2 mps 745 mmHg 83%
    23:00 +17°C° 0 mm 3 mps 745 mmHg 85%

    Day after tomorrow, 27 June, Thursday

    Time Temperature Precipitation Wind Pressure Humidity
    00:00 +16°C° 0 mm 3 mps 744 mmHg 86%
    01:00 +16°C° 0 mm 3 mps 743 mmHg 88%
    02:00 +14°C° 0 mm 3 mps 743 mmHg 90%
    03:00 +14°C° 0 mm 3 mps 742 mmHg 91%
    04:00 +15°C° 0.1 mm 4 mps 741 mmHg 90%
    05:00 +15°C° 0.1 mm 4 mps 740 mmHg 88%
    06:00 +16°C° 0.1 mm 5 mps 739 mmHg 86%
    07:00 +17°C° 0.2 mm 5 mps 739 mmHg 86%
    08:00 +17°C° 0.2 mm 5 mps 738 mmHg 86%
    09:00 +19°C° 0.2 mm 6 mps 737 mmHg 86%
    10:00 +20°C° 0.6 mm 6 mps 736 mmHg 86%
    11:00 +20°C° 0.6 mm 7 mps 736 mmHg 86%
    12:00 +20°C° 0.6 mm 8 mps 735 mmHg 87%
    13:00 +20°C° 2.3 mm 8 mps 734 mmHg 88%
    14:00 +20°C° 2.3 mm 7 mps 733 mmHg 89%
    15:00 +20°C° 2.3 mm 7 mps 733 mmHg 91%
    16:00 +21°C° 0.3 mm 7 mps 732 mmHg 91%
    17:00 +21°C° 0.3 mm 7 mps 731 mmHg 91%
    18:00 +21°C° 0.3 mm 7 mps 731 mmHg 92%
    19:00 +20°C° 0.2 mm 7 mps 730 mmHg 92%
    20:00 +20°C° 0.2 mm 6 mps 730 mmHg 93%
    21:00 +19°C° 0.2 mm 5 mps 730 mmHg 93%
    22:00 +17°C° 0 mm 5 mps 730 mmHg 93%
    23:00 +16°C° 0 mm 5 mps 730 mmHg 92%

    28 June, Friday

    Time Temperature Precipitation Wind Pressure Humidity
    00:00 +14°C° 0 mm 5 mps 730 mmHg 92%
    01:00 +13°C° 0 mm 5 mps 730 mmHg 93%
    02:00 +13°C° 0 mm 5 mps 730 mmHg 93%
    03:00 +12°C° 0 mm 5 mps 730 mmHg 94%
    04:00 +12°C° 0 mm 5 mps 729 mmHg 93%
    05:00 +11°C° 0 mm 6 mps 729 mmHg 92%
    06:00 +11°C° 0 mm 6 mps 729 mmHg 91%
    07:00 +13°C° 0.1 mm 6 mps 729 mmHg 89%
    08:00 +13°C° 0.1 mm 6 mps 729 mmHg 87%
    09:00 +12°C° 0.1 mm 7 mps 729 mmHg 85%
    10:00 +14°C° 0.2 mm 7 mps 729 mmHg 82%
    11:00 +15°C° 0.2 mm 7 mps 728 mmHg 78%
    12:00 +16°C° 0.2 mm 8 mps 728 mmHg 75%
    13:00 +15°C° 0.4 mm 8 mps 728 mmHg 79%
    14:00 +13°C° 0.4 mm 8 mps 728 mmHg 82%
    15:00 +14°C° 0.4 mm 7 mps 729 mmHg 86%
    16:00 +12°C° 0.2 mm 7 mps 729 mmHg 88%
    17:00 +11°C° 0.2 mm 7 mps 729 mmHg 91%
    18:00 +11°C° 0.2 mm 7 mps 729 mmHg 93%
    19:00 +11°C° 0.2 mm 7 mps 729 mmHg 93%
    20:00 +10°C° 0.2 mm 6 mps 729 mmHg 94%
    21:00 +10°C° 0.2 mm 6 mps 729 mmHg 94%
    22:00 +10°C° 0.2 mm 6 mps 730 mmHg 94%
    23:00 +10°C° 0.2 mm 6 mps 730 mmHg 95%

    29 June, Saturday

    Time Temperature Precipitation Wind Pressure Humidity
    00:00 +10°C° 0.2 mm 6 mps 730 mmHg 95%
    01:00 +10°C° 0.1 mm 6 mps 730 mmHg 94%
    02:00 +10°C° 0.1 mm 6 mps 730 mmHg 93%
    03:00 +9°C° 0.1 mm 6 mps 730 mmHg 92%
    04:00 +9°C° 0 mm 6 mps 731 mmHg 92%
    05:00 +9°C° 0 mm 6 mps 731 mmHg 91%
    06:00 +8°C° 0 mm 6 mps 731 mmHg 91%
    07:00 +8°C° 0 mm 6 mps 731 mmHg 89%
    08:00 +8°C° 0 mm 6 mps 731 mmHg 87%
    09:00 +8°C° 0 mm 7 mps 732 mmHg 85%
    10:00 +8°C° 0 mm 7 mps 732 mmHg 84%
    11:00 +8°C° 0 mm 7 mps 733 mmHg 84%
    12:00 +8°C° 0 mm 7 mps 733 mmHg 84%
    13:00 +8°C° 0 mm 7 mps 734 mmHg 84%
    14:00 +8°C° 0 mm 7 mps 734 mmHg 84%
    15:00 +8°C° 0 mm 7 mps 734 mmHg 84%
    16:00 +6°C° 0 mm 7 mps 735 mmHg 85%
    17:00 +7°C° 0 mm 6 mps 735 mmHg 86%
    18:00 +7°C° 0 mm 6 mps 735 mmHg 86%
    19:00 +7°C° 0.2 mm 6 mps 735 mmHg 89%
    20:00 +7°C° 0.2 mm 5 mps 736 mmHg 91%
    21:00 +7°C° 0.2 mm 5 mps 736 mmHg 94%
    22:00 +7°C° 0.8 mm 5 mps 736 mmHg 94%
    23:00 +7°C° 0.8 mm 5 mps 736 mmHg 95%

    30 June, Sunday

    Time Temperature Precipitation Wind Pressure Humidity
    00:00 +7°C° 0.8 mm 5 mps 736 mmHg 95%
    01:00 +7°C° 0.4 mm 5 mps 736 mmHg 95%
    02:00 +7°C° 0.4 mm 4 mps 736 mmHg 95%
    03:00 +7°C° 0.4 mm 4 mps 736 mmHg 95%
    04:00 +7°C° 0 mm 4 mps 736 mmHg 94%
    05:00 +7°C° 0 mm 4 mps 736 mmHg 92%
    06:00 +7°C° 0 mm 5 mps 737 mmHg 90%
    07:00 +8°C° 0 mm 5 mps 737 mmHg 86%
    08:00 +11°C° 0 mm 4 mps 737 mmHg 82%
    09:00 +12°C° 0 mm 4 mps 738 mmHg 77%
    10:00 +13°C° 0 mm 5 mps 738 mmHg 70%
    11:00 +14°C° 0 mm 5 mps 738 mmHg 64%
    12:00 +16°C° 0 mm 6 mps 739 mmHg 57%
    13:00 +16°C° 0.1 mm 6 mps 739 mmHg 57%
    14:00 +16°C° 0.1 mm 6 mps 739 mmHg 57%
    15:00 +17°C° 0.1 mm 6 mps 739 mmHg 57%
    16:00 +16°C° 0.1 mm 5 mps 740 mmHg 60%
    17:00 +17°C° 0.1 mm 4 mps 740 mmHg 63%
    18:00 +17°C° 0.1 mm 3 mps 740 mmHg 66%
    19:00 +14°C° 0 mm 3 mps 740 mmHg 69%
    20:00 +14°C° 0 mm 2 mps 741 mmHg 73%
    21:00 +12°C° 0 mm 2 mps 741 mmHg 77%
    22:00 +12°C° 0 mm 2 mps 741 mmHg 79%
    23:00 +10°C° 0 mm 2 mps 741 mmHg 81%
    Show more